Stanton, MN

9:37 AM CDT on June 25, 2017 (GMT -0500)
Stanton

Weather History for KSYN - October, 2012

Change the Weather History Date:

Thursday, October 11, 2012

  Actual Average (KLVN) Record (KLVN)
Temperature  
Mean Temperature 40 °F -  
Max Temperature 54 °F 62 °F 84 °F (1962)
Min Temperature 25 °F 39 °F 24 °F (1987)
Degree Days  
Heating Degree Days 24    
Moisture  
Dew Point 24 °F    
Average Humidity 45    
Maximum Humidity 73    
Minimum Humidity 22    
Precipitation  
Precipitation 0.00 in - - ()
Sea Level Pressure  
Sea Level Pressure 30.08 in    
Wind  
Wind Speed 13 mph (NW)    
Max Wind Speed 22 mph    
Max Gust Speed 29 mph    
Visibility 10 miles    
Events      
Averages and records for this station are not official NWS values.
T = Trace of Precipitation, MM = Missing Value Source: NWS Daily Summary

Daily Weather History Graph

Daily Weather History Graph

Search for Another Location

Airport or City:

Trip Planner

Search our weather history database for the weather conditions in past years. The results will help you decide how hot, cold, wet, or windy it might be!

Date:

Astronomy

Oct. 11, 2012 Rise Set
Actual Time 7:22 AM CDT 6:33 PM CDT
Civil Twilight 6:53 AM CDT 7:02 PM CDT
Nautical Twilight 6:19 AM CDT 7:36 PM CDT
Astronomical Twilight 5:46 AM CDT 8:10 PM CDT
Moon 2:52 AM CDT (10/11) 4:18 PM CDT (10/11)
Length of Visible Light 12h 09m
Length of Day
11h 10m
Waning Crescent, 18% of the Moon is Illuminated
Oct 11
Waning Crescent
Oct 15
New
Oct 21
First Quarter
Oct 29
Full
Nov 6
Last Quarter

Hourly Weather History & Observations

Time (CDT) Temp. Windchill Dew Point Humidity Pressure Visibility Wind Dir Wind Speed Gust Speed Precip Events Conditions
12:12 AM 50.9 °F - 25.3 °F 37% 29.85 in 10.0 mi South 15.0 mph 23.0 mph N/A   Overcast
12:32 AM 50.5 °F - 25.7 °F 38% 29.84 in 10.0 mi South 15.0 mph 23.0 mph N/A   Scattered Clouds
12:52 AM 50.0 °F - 26.2 °F 40% 29.83 in 10.0 mi SSW 12.7 mph 21.9 mph N/A   Mostly Cloudy
1:12 AM 50.2 °F - 27.1 °F 41% 29.83 in 10.0 mi SSW 10.4 mph 18.4 mph N/A   Scattered Clouds
1:32 AM 50.7 °F - 27.5 °F 41% 29.82 in 10.0 mi SSW 12.7 mph 20.7 mph N/A   Scattered Clouds
1:52 AM 52.0 °F - 28.0 °F 40% 29.82 in 10.0 mi SSW 21.9 mph 27.6 mph N/A   Mostly Cloudy
2:12 AM 52.7 °F - 28.2 °F 39% 29.81 in 10.0 mi SSW 19.6 mph 24.2 mph N/A   Overcast
2:52 AM 54.1 °F - 28.0 °F 37% 29.82 in 10.0 mi SW 17.3 mph 28.8 mph N/A   Overcast
3:12 AM 54.7 °F - 28.2 °F 36% 29.85 in 10.0 mi West 10.4 mph 20.7 mph N/A   Scattered Clouds
3:32 AM 54.5 °F - 28.8 °F 37% 29.85 in 10.0 mi WSW 16.1 mph 23.0 mph N/A   Scattered Clouds
3:52 AM 53.6 °F - 29.1 °F 39% 29.84 in 10.0 mi SW 15.0 mph - N/A   Mostly Cloudy
4:12 AM 52.9 °F - 29.7 °F 41% 29.84 in 10.0 mi SW 15.0 mph - N/A   Mostly Cloudy
4:32 AM 51.8 °F - 30.0 °F 43% 29.84 in 10.0 mi SW 15.0 mph - N/A   Mostly Cloudy
4:52 AM 52.0 °F - 30.0 °F 43% 29.84 in 10.0 mi SW 11.5 mph - N/A   Mostly Cloudy
5:12 AM 52.7 °F - 30.0 °F 42% 29.86 in 10.0 mi WSW 9.2 mph - N/A   Mostly Cloudy
5:32 AM 53.2 °F - 30.0 °F 41% 29.86 in 10.0 mi WSW 9.2 mph - N/A   Mostly Cloudy
5:52 AM 52.7 °F - 30.4 °F 42% 29.86 in 10.0 mi West 8.1 mph - N/A   Mostly Cloudy
6:12 AM 51.8 °F - 30.9 °F 45% 29.88 in 10.0 mi West 6.9 mph - N/A   Mostly Cloudy
6:32 AM 50.4 °F - 31.3 °F 48% 29.91 in 10.0 mi NW 9.2 mph - N/A   Scattered Clouds
6:52 AM 49.5 °F - 29.1 °F 46% 29.94 in 10.0 mi North 20.7 mph 25.3 mph N/A   Mostly Cloudy
7:12 AM 45.5 °F 38.6 °F 29.5 °F 54% 29.96 in 10.0 mi NNW 16.1 mph - N/A   Scattered Clouds
7:32 AM 44.1 °F 39.5 °F 30.9 °F 60% 29.98 in 10.0 mi North 8.1 mph - N/A   Scattered Clouds
7:52 AM 42.8 °F 36.6 °F 32.0 °F 66% 30.00 in 10.0 mi North 11.5 mph - N/A   Scattered Clouds
8:12 AM 42.4 °F 36.5 °F 32.5 °F 68% 30.01 in 10.0 mi North 10.4 mph - N/A   Clear
8:32 AM 42.8 °F 35.8 °F 32.9 °F 68% 30.03 in 10.0 mi North 13.8 mph - N/A   Clear
8:52 AM 43.2 °F 35.9 °F 33.4 °F 69% 30.04 in 10.0 mi North 15.0 mph - N/A   Clear
9:12 AM 43.5 °F 36.7 °F 33.8 °F 69% 30.06 in 10.0 mi North 13.8 mph 18.4 mph N/A   Clear
9:32 AM 43.9 °F 36.5 °F 33.1 °F 66% 30.08 in 10.0 mi North 16.1 mph - N/A   Scattered Clouds
9:52 AM 44.1 °F 36.8 °F 32.5 °F 64% 30.08 in 10.0 mi North 16.1 mph 20.7 mph N/A   Mostly Cloudy
10:12 AM 45.3 °F 37.8 °F 31.3 °F 58% 30.10 in 10.0 mi North 18.4 mph 23.0 mph N/A   Overcast
10:32 AM 44.6 °F 37.4 °F 30.2 °F 57% 30.10 in 10.0 mi North 16.1 mph - N/A   Overcast
10:52 AM 44.6 °F 38.1 °F 30.2 °F 57% 30.11 in 10.0 mi North 13.8 mph - N/A   Overcast
11:12 AM 45.9 °F 39.1 °F 27.7 °F 49% 30.13 in 10.0 mi North 16.1 mph 20.7 mph N/A   Overcast
11:32 AM 45.9 °F 40.8 °F 27.5 °F 49% 30.14 in 10.0 mi North 10.4 mph - N/A   Overcast
11:52 AM 48.6 °F - 26.6 °F 42% 30.13 in 10.0 mi NNW 18.4 mph - N/A   Scattered Clouds
12:12 PM 49.5 °F - 27.3 °F 42% 30.14 in 10.0 mi North 12.7 mph 24.2 mph N/A   Scattered Clouds
12:52 PM 49.1 °F - 27.1 °F 43% 30.14 in 10.0 mi NNW 17.3 mph - N/A   Scattered Clouds
1:12 PM 50.5 °F - 26.2 °F 39% 30.15 in 10.0 mi NNW 11.5 mph 19.6 mph N/A   Scattered Clouds
1:32 PM 50.4 °F - 25.0 °F 37% 30.15 in 10.0 mi NNW 13.8 mph 23.0 mph N/A   Clear
1:52 PM 50.5 °F - 20.1 °F 30% 30.15 in 10.0 mi North 15.0 mph 20.7 mph N/A   Clear
2:12 PM 50.7 °F - 20.1 °F 30% 30.16 in 10.0 mi NNW 15.0 mph 20.7 mph N/A   Clear
2:32 PM 50.5 °F - 20.5 °F 31% 30.16 in 10.0 mi NW 13.8 mph 18.4 mph N/A   Clear
2:52 PM 50.0 °F - 19.4 °F 30% 30.17 in 10.0 mi NNW 11.5 mph - N/A   Clear
3:12 PM 50.2 °F - 15.6 °F 25% 30.18 in 10.0 mi NNW 15.0 mph 19.6 mph N/A   Clear
3:52 PM 50.0 °F - 16.0 °F 26% 30.18 in 10.0 mi NNW 13.8 mph - N/A   Clear
4:12 PM 49.1 °F - 14.7 °F 25% 30.20 in 10.0 mi NW 12.7 mph - N/A   Clear
4:32 PM 49.1 °F - 14.5 °F 25% 30.20 in 10.0 mi NNW 12.7 mph 20.7 mph N/A   Clear
5:12 PM 48.9 °F - 11.1 °F 22% 30.20 in 10.0 mi NNW 13.8 mph - N/A   Clear
5:52 PM 45.5 °F 41.8 °F 14.2 °F 28% 30.22 in 10.0 mi NW 6.9 mph - N/A   Clear
6:32 PM 41.4 °F 36.2 °F 14.7 °F 34% 30.23 in 10.0 mi WNW 8.1 mph - N/A   Clear
6:52 PM 40.8 °F 36.9 °F 14.5 °F 34% 30.25 in 10.0 mi WNW 5.8 mph - N/A   Clear
7:12 PM 40.3 °F 35.5 °F 14.5 °F 35% 30.26 in 10.0 mi NW 6.9 mph - N/A   Clear
7:32 PM 39.0 °F 33.4 °F 12.7 °F 34% 30.27 in 10.0 mi North 8.1 mph - N/A   Clear
7:52 PM 38.7 °F 32.9 °F 12.9 °F 35% 30.28 in 10.0 mi North 8.1 mph - N/A   Clear
8:12 PM 38.5 °F 32.1 °F 14.2 °F 37% 30.29 in 10.0 mi North 9.2 mph - N/A   Clear
8:32 PM 37.4 °F 32.1 °F 14.9 °F 40% 30.30 in 10.0 mi North 6.9 mph - N/A   Clear
8:52 PM 35.8 °F 31.9 °F 14.9 °F 43% 30.30 in 10.0 mi North 4.6 mph - N/A   Clear
9:12 PM 35.8 °F - 15.3 °F 43% 30.31 in 10.0 mi Calm Calm - N/A   Clear
9:52 PM 33.1 °F - 16.9 °F 51% 30.33 in 10.0 mi Calm Calm - N/A   Clear
10:32 PM 28.2 °F - 15.6 °F 59% 30.34 in 10.0 mi Calm Calm - N/A   Clear
10:52 PM 28.6 °F - 15.6 °F 58% 30.35 in 10.0 mi Calm Calm - N/A   Clear
11:12 PM 28.2 °F - 18.1 °F 66% 30.36 in 10.0 mi Calm Calm - N/A   Clear
11:32 PM 27.3 °F - 18.0 °F 68% 30.37 in 10.0 mi Calm Calm - N/A   Clear
11:52 PM 25.7 °F - 18.0 °F 73% 30.37 in 10.0 mi Calm Calm - N/A   Clear